Location: Warszawa
(52.2500°N, 21.0000°E)
Time: 00:32:43
(UTC+02:00)

AO-27 - Pass Details

Date: 24 April 2024
Orbit: 783 x 797 km, 98.8° (Epoch: 26 May)

Event Time Altitude Azimuth Distance (km) Brightness Sun altitude
Exits shadow 21:47:36 - 196° (SSW) 3,077 10.4 -15.3°
Reaches altitude 10° 21:49:38 10° 206° (SSW) 2,365 9.9 -15.6°
Maximum altitude 21:54:10 30° 266° (W) 1,416 9.3 -16.0°
Drops below altitude 10° 21:58:45 10° 327° (NNW) 2,380 11.5 -16.5°
Sets 22:01:23 0° 338° (NNW) 3,314 12.4 -16.7°
